Big Rapids, MI

1:56 PM EDT on October 19, 2019 (GMT -0400)
Roben-Hood

Weather History for KRQB - August, 2019

Change the Weather History Date:

Thursday, August 15, 2019

  Actual Average Record
Temperature  
Mean Temperature 64 °F -  
Max Temperature 70 °F 80 °F 91 °F (1988)
Min Temperature 55 °F 54 °F 41 °F (1992)
Degree Days  
Heating Degree Days 2    
Growing Degree Days 14 (Base 50)    
Moisture  
Dew Point 57 °F    
Average Humidity 79    
Maximum Humidity 96    
Minimum Humidity 61    
Precipitation  
Precipitation 0.00 in - - ()
Sea Level Pressure  
Sea Level Pressure 30.02 in    
Wind  
Wind Speed 4 mph (SE)    
Max Wind Speed 10 mph    
Max Gust Speed -    
Visibility 10 miles    
Events Rain    
Averages and records for this station are not official NWS values.
T = Trace of Precipitation, MM = Missing Value Source: NWS Daily Summary

Daily Weather History Graph

Daily Weather History Graph

Search for Another Location

Airport or City:

Astronomy

Aug. 15, 2019 Rise Set
Actual Time 6:46 AM EDT 8:46 PM EDT
Civil Twilight 6:15 AM EDT 9:17 PM EDT
Nautical Twilight 5:36 AM EDT 9:55 PM EDT
Astronomical Twilight 4:54 AM EDT 10:36 PM EDT
Moon 9:14 PM EDT (8/15) 6:38 AM EDT (8/15)
Length of Visible Light 15h 02m
Length of Day
13h 59m
Full, 100% of the Moon is Illuminated
Aug 15
Full
Aug 23
Last Quarter
Aug 30
New
Sep 5
First Quarter
Sep 14
Full

Hourly Weather History & Observations

Time (EDT) Temp. Dew Point Humidity Pressure Visibility Wind Dir Wind Speed Gust Speed Precip Events Conditions
12:15 AM 64.8 °F 56.3 °F 74% 30.02 in 10.0 mi SSE 5.8 mph - N/A   Overcast
12:16 AM 64.8 °F 56.3 °F 74% 30.02 in 10.0 mi SSE 5.8 mph - N/A   Overcast
12:35 AM 64.9 °F 56.8 °F 75% 30.03 in 10.0 mi SSE 4.6 mph - N/A   Overcast
12:59 AM 64.4 °F 57.4 °F 78% 30.04 in 10.0 mi SE 5.8 mph - N/A   Overcast
1:17 AM 64.2 °F 57.6 °F 79% 30.04 in 10.0 mi South 3.5 mph - N/A   Overcast
1:35 AM 64.0 °F 57.7 °F 80% 30.04 in 10.0 mi West 3.5 mph - N/A   Overcast
1:36 AM 64.0 °F 57.7 °F 80% 30.04 in 10.0 mi South 3.5 mph - N/A   Overcast
1:55 AM 63.5 °F 58.1 °F 83% 30.04 in 10.0 mi South 5.8 mph - N/A   Overcast
2:15 AM 63.7 °F 57.9 °F 81% 30.03 in 10.0 mi South 5.8 mph - N/A   Overcast
2:19 AM 63.5 °F 58.1 °F 83% 30.03 in 10.0 mi South 6.9 mph - N/A   Overcast
2:36 AM 63.5 °F 58.1 °F 83% 30.03 in 10.0 mi SSE 3.5 mph - N/A   Overcast
2:55 AM 63.1 °F 57.6 °F 82% 30.03 in 10.0 mi SSE 5.8 mph - N/A   Overcast
2:56 AM 63.1 °F 57.6 °F 82% 30.03 in 10.0 mi SSE 6.9 mph - N/A   Overcast
3:15 AM 61.9 °F 56.8 °F 84% 30.03 in 10.0 mi SSE 9.2 mph - N/A Rain Light Rain
3:16 AM 61.9 °F 56.7 °F 83% 30.03 in 10.0 mi SSE 6.9 mph - N/A Rain Light Rain
3:39 AM 60.8 °F 55.4 °F 82% 30.04 in 10.0 mi SSE 10.4 mph - N/A Rain Light Rain
3:57 AM 60.1 °F 55.0 °F 83% 30.03 in 10.0 mi SE 6.9 mph - N/A   Overcast
4:15 AM 59.9 °F 55.4 °F 85% 30.03 in 10.0 mi SE 5.8 mph - N/A   Overcast
4:16 AM 59.7 °F 55.2 °F 85% 30.03 in 10.0 mi SE 5.8 mph - N/A Rain Light Rain
4:35 AM 59.0 °F 55.8 °F 89% 30.03 in 10.0 mi SSE 5.8 mph - N/A Rain Light Rain
4:36 AM 59.0 °F 55.8 °F 89% 30.03 in 10.0 mi SSE 5.8 mph - N/A Rain Light Rain
4:55 AM 58.6 °F 55.9 °F 91% 30.03 in 10.0 mi SSE 4.6 mph - N/A Rain Rain
5:18 AM 58.5 °F 55.9 °F 91% 30.03 in 10.0 mi SE 4.6 mph - N/A Rain Rain
5:36 AM 58.3 °F 55.9 °F 92% 30.03 in 10.0 mi Calm Calm - N/A   Overcast
5:55 AM 58.1 °F 55.9 °F 93% 30.03 in 10.0 mi Calm Calm - N/A Rain Rain
6:15 AM 58.1 °F 56.3 °F 94% 30.03 in 7.0 mi Calm Calm - N/A Rain Light Rain
6:20 AM 58.1 °F 55.9 °F 93% 30.03 in 7.0 mi Calm Calm - N/A Rain Rain
6:38 AM 58.1 °F 56.3 °F 94% 30.03 in 10.0 mi Calm Calm - N/A   Drizzle
6:56 AM 58.1 °F 56.3 °F 94% 30.03 in 10.0 mi Calm Calm - N/A   Overcast
7:15 AM 58.3 °F 56.5 °F 94% 30.03 in 10.0 mi Calm Calm - N/A   Overcast
7:16 AM 58.5 °F 56.7 °F 94% 30.03 in 10.0 mi Calm Calm - N/A   Overcast
7:35 AM 58.5 °F 56.7 °F 94% 30.03 in 10.0 mi Calm Calm - N/A   Overcast
7:40 AM 58.6 °F 56.8 °F 94% 30.03 in 10.0 mi Calm Calm - N/A   Overcast
7:58 AM 59.0 °F 57.2 °F 94% 30.03 in 10.0 mi Calm Calm - N/A   Overcast
8:16 AM 59.2 °F 57.2 °F 93% 30.03 in 10.0 mi Calm Calm - N/A   Overcast
8:35 AM 59.5 °F 57.4 °F 93% 30.02 in 10.0 mi Calm Calm - N/A   Overcast
8:55 AM 60.8 °F 57.9 °F 90% 30.03 in 10.0 mi Calm Calm - N/A   Overcast
8:56 AM 60.8 °F 57.9 °F 90% 30.03 in 10.0 mi Calm Calm - N/A   Overcast
9:19 AM 61.0 °F 56.8 °F 86% 30.03 in 10.0 mi Calm Calm - N/A   Overcast
9:37 AM 61.3 °F 57.2 °F 86% 30.03 in 10.0 mi Calm Calm - N/A   Overcast
9:55 AM 61.7 °F 57.2 °F 85% 30.03 in 10.0 mi Calm Calm - N/A   Overcast
10:15 AM 62.2 °F 57.4 °F 84% 30.03 in 10.0 mi Calm Calm - N/A   Overcast
10:16 AM 62.2 °F 57.6 °F 85% 30.03 in 10.0 mi East 3.5 mph - N/A   Overcast
10:35 AM 62.8 °F 57.0 °F 81% 30.03 in 10.0 mi ESE 3.5 mph - N/A   Overcast
10:57 AM 63.5 °F 57.2 °F 80% 30.04 in 10.0 mi Calm Calm - N/A   Overcast
11:15 AM 64.4 °F 57.4 °F 78% 30.04 in 10.0 mi SSW 4.6 mph - N/A   Overcast
11:16 AM 64.4 °F 57.2 °F 77% 30.04 in 10.0 mi SSW 4.6 mph - N/A   Overcast
11:35 AM 65.3 °F 58.3 °F 78% 30.04 in 10.0 mi South 5.8 mph - N/A   Overcast
11:36 AM 65.3 °F 58.3 °F 78% 30.04 in 10.0 mi South 3.5 mph - N/A   Overcast
11:55 AM 65.3 °F 57.6 °F 76% 30.04 in 10.0 mi NW 4.6 mph - N/A   Overcast
12:18 PM 65.3 °F 57.6 °F 76% 30.04 in 10.0 mi SW 4.6 mph - N/A   Overcast
12:36 PM 65.3 °F 56.8 °F 74% 30.04 in 10.0 mi WNW 5.8 mph - N/A   Overcast
12:55 PM 65.5 °F 56.7 °F 73% 30.03 in 10.0 mi WNW 3.5 mph - N/A   Overcast
12:56 PM 65.5 °F 56.7 °F 73% 30.03 in 10.0 mi NW 3.5 mph - N/A   Overcast
1:15 PM 66.6 °F 57.6 °F 73% 30.02 in 10.0 mi WNW 4.6 mph - N/A   Overcast
1:38 PM 66.6 °F 56.8 °F 71% 30.02 in 10.0 mi NE 4.6 mph - N/A   Overcast
1:55 PM 66.6 °F 57.6 °F 73% 30.01 in 10.0 mi ENE 4.6 mph - N/A   Overcast
1:56 PM 66.6 °F 57.4 °F 72% 30.01 in 10.0 mi ENE 3.5 mph - N/A   Overcast
2:15 PM 67.1 °F 54.9 °F 65% 30.01 in 10.0 mi ENE 4.6 mph - N/A   Overcast
2:16 PM 67.1 °F 54.9 °F 65% 30.01 in 10.0 mi NE 4.6 mph - N/A   Overcast
2:35 PM 67.3 °F 57.4 °F 70% 30.01 in 10.0 mi East 5.8 mph - N/A   Overcast
2:58 PM 68.2 °F 57.9 °F 70% 30.01 in 10.0 mi East 4.6 mph - N/A   Overcast
3:16 PM 68.2 °F 57.6 °F 69% 30.01 in 10.0 mi ESE 5.8 mph - N/A   Overcast
3:35 PM 68.7 °F 55.6 °F 63% 30.01 in 10.0 mi East 6.9 mph - N/A   Overcast
3:36 PM 68.9 °F 55.6 °F 62% 30.01 in 10.0 mi East 6.9 mph - N/A   Overcast
3:55 PM 68.9 °F 55.0 °F 61% 30.00 in 10.0 mi East 4.6 mph - N/A   Overcast
4:19 PM 69.1 °F 55.8 °F 62% 30.01 in 10.0 mi East 4.6 mph - N/A   Overcast
4:37 PM 68.7 °F 55.0 °F 62% 30.01 in 10.0 mi ENE 4.6 mph - N/A   Overcast
4:55 PM 69.3 °F 55.9 °F 62% 30.01 in 10.0 mi ENE 4.6 mph - N/A   Overcast
4:56 PM 69.4 °F 56.3 °F 63% 30.01 in 10.0 mi NE 3.5 mph - N/A   Overcast
5:15 PM 70.2 °F 56.1 °F 61% 30.00 in 10.0 mi East 5.8 mph - N/A   Mostly Cloudy
5:39 PM 69.8 °F 55.9 °F 61% 30.00 in 10.0 mi ENE 5.8 mph - N/A   Scattered Clouds
5:57 PM 69.1 °F 55.9 °F 63% 30.00 in 10.0 mi East 4.6 mph - N/A   Scattered Clouds
6:15 PM 70.0 °F 56.5 °F 62% 30.00 in 10.0 mi Calm Calm - N/A   Scattered Clouds
6:16 PM 70.0 °F 56.5 °F 62% 30.00 in 10.0 mi NNE 3.5 mph - N/A   Scattered Clouds
6:35 PM 70.2 °F 56.1 °F 61% 30.00 in 10.0 mi SE 5.8 mph - N/A   Mostly Cloudy
6:36 PM 70.2 °F 56.1 °F 61% 30.00 in 10.0 mi SSE 5.8 mph - N/A   Mostly Cloudy
6:55 PM 69.4 °F 56.3 °F 63% 29.99 in 10.0 mi ESE 3.5 mph - N/A   Scattered Clouds
7:00 PM 69.4 °F 56.3 °F 63% 29.99 in 10.0 mi East 3.5 mph - N/A   Scattered Clouds
7:18 PM 69.3 °F 57.0 °F 65% 29.99 in 10.0 mi East 5.8 mph - N/A   Scattered Clouds
7:36 PM 68.5 °F 57.7 °F 68% 29.99 in 10.0 mi East 5.8 mph - N/A   Scattered Clouds
7:55 PM 67.3 °F 57.7 °F 71% 29.99 in 10.0 mi ESE 5.8 mph - N/A   Clear
7:56 PM 67.3 °F 57.6 °F 71% 29.99 in 10.0 mi ESE 4.6 mph - N/A   Clear
8:15 PM 65.8 °F 57.9 °F 76% 29.98 in 10.0 mi ESE 5.8 mph - N/A   Clear
8:16 PM 65.8 °F 57.7 °F 75% 29.98 in 10.0 mi ESE 4.6 mph - N/A   Clear
8:38 PM 64.6 °F 58.1 °F 79% 29.99 in 10.0 mi SSW 6.9 mph - N/A   Clear
8:55 PM 63.9 °F 58.1 °F 81% 29.99 in 10.0 mi Calm Calm - N/A   Clear
8:56 PM 63.7 °F 58.1 °F 82% 29.99 in 10.0 mi Calm Calm - N/A   Clear
9:15 PM 61.5 °F 58.1 °F 89% 29.99 in 10.0 mi WNW 3.5 mph - N/A   Clear
9:35 PM 61.7 °F 57.7 °F 87% 30.00 in 10.0 mi North 3.5 mph - N/A   Clear
9:58 PM 60.8 °F 57.4 °F 88% 30.00 in 10.0 mi Calm Calm - N/A   Clear
10:16 PM 59.2 °F 56.7 °F 91% 30.00 in 10.0 mi Calm Calm - N/A   Clear
10:35 PM 58.3 °F 56.1 °F 93% 30.00 in 10.0 mi Calm Calm - N/A   Clear
10:55 PM 58.1 °F 56.3 °F 94% 30.00 in 10.0 mi Calm Calm - N/A   Clear
10:56 PM 58.1 °F 56.3 °F 94% 30.00 in 10.0 mi Calm Calm - N/A   Clear
11:19 PM 57.0 °F 55.4 °F 94% 30.00 in 10.0 mi Calm Calm - N/A   Clear
11:37 PM 57.4 °F 56.3 °F 96% 30.00 in 10.0 mi Calm Calm - N/A   Clear
11:56 PM 55.8 °F 54.5 °F 96% 30.00 in 10.0 mi Calm Calm - N/A   Clear